Location: Poughquag
(41.6090°N, 73.6820°W)
Time: 12:43:14
(UTC-04:00)

A-11 Canister half - Pass Details

Date: 31 May 2020
Orbit: 1527 x 1682 km, 47.3° (Epoch: 06 July)

Event Time Altitude Azimuth Distance (km) Brightness Sun altitude
Rises 12:37:48 0° 292° (WNW) 4,709 11.4 70.2°
Reaches altitude 10° 12:40:50 10° 294° (WNW) 3,739 11.1 70.3°
Maximum altitude 12:50:22 79° 21° (NNE) 1,613 10.4 70.4°
Drops below altitude 10° 13:00:12 10° 109° (ESE) 3,853 11.3 70.4°
Sets 13:03:22 0° 111° (ESE) 4,858 11.7 70.3°
